Location: Hamilton
(37.7830°S, 175.2830°E)
Time: 09:38:09
(UTC+13:00)

Cosmos 1340 Rocket - Pass Details

Date: 24 January 2019
Orbit: 529 x 560 km, 81.2° (Epoch: 19 February)

Event Time Altitude Azimuth Distance (km) Brightness Sun altitude
Exits shadow 23:51:21 33° 180° (S) 924 4.4 -28.4°
Drops below altitude 10° 23:53:40 10° 174° (S) 1,823 6.2 -28.6°
Sets 23:55:51 0° 172° (S) 2,729 7.2 -28.8°
